Content
SEND FEEDBACK

Canada Flag

CHARLOTTETOWN, PRINCE EDWARD ISLAND


Home > North America > Canada > Prince Edward Island
Elevation: 181 feet     Latitude: 46 17N     Longitude: 063 08W

WEATHER
 
SELECT A DAY
Number of Records: 214,947;   Date Range: 1/1/95 - 3/22/16
 
SHARE

PRINT THIS DATA

[ ← Previous Day ]
WEATHER ALMANAC - FEBRUARY 3, 2013
[ Next Day → ]
[ °C ]   °F
Weather ElementAverageHighLow
Temperature19.9 °F28.4 °F (10:50 pm)12 °F (2:00 am)
Dewpoint16 °F26.6 °F (8:47 pm)1.4 °F (1:00 am)
Humidity85 %100 % (6:43 pm)53 % (2:00 am)
Barometer30.00 in30.24 in (1:00 am)29.60 in (11:00 pm)
Wind Speed10 mph17.3 mph (5:00 pm)
Wind Gust23 mph (6:00 pm)
Weather ElementAverage
Visibility5.5 mi
Wind DirectionENE (71.8 °)

Weather ElementTotal
Precipitation---
Heating Degree Days44.8 (Base 65)
Averaged from 38 records on February 3, 2013
WEATHER CONDITIONS BREAKOUT
WIND DIRECTION BREAKOUT
WEATHER BY HOUR - FEBRUARY 3, 2013
[ °C ]   °F
Local TimeTemperatureDewpointHumidityBarometerVisibilityWind DirectionWind SpeedGust SpeedPrecipitationEventsConditions
1:00 AM12.2 °F1.4 °F62 %30.24 in15.0 miCalmOvercast
2:00 AM12.0 °F3.0 °F53 %30.23 in15.0 miEast (90°)3.5 mphOvercast
2:00 AM12.2 °F3.2 °F67 %30.23 in15.0 miENE (70°)3.5 mphOvercast
3:00 AM12.2 °F3.2 °F67 %30.22 in15.0 miEast (90°)3.5 mphOvercast
4:00 AM12.2 °F3.2 °F67 %30.21 in15.0 miESE (120°)4.6 mphOvercast
5:00 AM14.0 °F3.2 °F62 %30.22 in15.0 miESE (120°)6.9 mphOvercast
5:14 AM14.0 °F3.2 °F62 %30.22 in15.0 miESE (120°)6.9 mphSnowLight Snow
6:00 AM14.0 °F6.8 °F73 %30.21 in8.0 miESE (120°)9.2 mphSnowLight Snow
7:00 AM14.0 °F10.4 °F86 %30.20 in15.0 miEast (90°)8.1 mphSnowLight Snow
8:00 AM15.8 °F10.4 °F79 %30.19 in15.0 miENE (60°)9.2 mphSnowLight Snow
8:40 AM17.6 °F8.6 °F68 %30.18 in2.0 miEast (80°)12.7 mphSnowLight Snow
9:00 AM15.8 °F10.4 °F79 %30.18 in2.0 miEast (90°)12.7 mphSnowLight Snow
9:12 AM15.8 °F12.2 °F86 %30.18 in1.5 miEast (80°)11.5 mphSnowLight Snow
9:44 AM17.6 °F12.2 °F79 %30.17 in0.8 miEast (90°)13.8 mph20.7 mphSnowLight Snow
10:00 AM17.6 °F14.0 °F86 %30.16 in0.5 miEast (80°)15.0 mphSnowSnow
10:05 AM17.6 °F14.0 °F86 %30.15 in2.0 miEast (80°)12.7 mphSnowLight Snow
11:00 AM17.6 °F15.8 °F93 %30.12 in1.0 miEast (80°)11.5 mphSnowLight Snow
12:00 PM19.4 °F17.6 °F93 %30.08 in2.0 miEast (80°)10.4 mphSnowLight Snow
1:00 PM21.2 °F17.6 °F86 %30.05 in1.5 miEast (80°)11.5 mphSnowLight Snow
2:00 PM21.2 °F17.6 °F86 %30.00 in1.0 miENE (60°)12.7 mphSnowLight Snow
2:00 PM21.0 °F18.0 °F86 %30.00 in1.0 miENE (60°)12.7 mphSnowLight Snow
3:00 PM21.2 °F19.4 °F93 %29.95 in2.0 miENE (60°)13.8 mph19.6 mphSnowLight Snow
3:24 PM21.2 °F19.4 °F93 %29.94 in0.8 miNE (50°)12.7 mphSnowLight Snow
3:46 PM21.2 °F19.4 °F93 %29.93 in0.5 miNE (50°)13.8 mphSnowSnow
4:00 PM21.2 °F19.4 °F93 %29.91 in0.5 miNE (40°)11.5 mph18.4 mphSnowSnow
4:36 PM23.0 °F21.2 °F93 %29.89 in1.0 miNE (40°)12.7 mphSnowLight Snow
5:00 PM23.0 °F21.2 °F93 %29.88 in1.0 miNE (50°)17.3 mphSnowLight Snow
6:00 PM24.8 °F23.0 °F93 %29.84 in1.0 miNE (40°)15.0 mph23.0 mphSnowLight Snow
6:43 PM24.8 °F24.8 °F100 %29.81 in2.0 miNE (40°)16.1 mph23.0 mphSnowLight Snow
7:00 PM24.8 °F24.8 °F100 %29.80 in2.0 miNE (40°)13.8 mph20.7 mphSnowLight Snow
8:00 PM26.0 °F25.0 °F95 %29.75 in1.0 miNNE (30°)11.5 mphSnowLight Snow
8:00 PM26.6 °F24.8 °F93 %29.74 in1.0 miNNE (30°)12.7 mphSnowLight Snow
8:47 PM26.6 °F26.6 °F100 %29.71 in2.0 miNNE (30°)8.1 mphSnowLight Snow
9:00 PM26.6 °F26.6 °F100 %29.70 in2.0 miNE (40°)8.1 mphSnowLight Snow
9:23 PM26.6 °F26.6 °F100 %29.69 in3.0 miNNE (30°)6.9 mphSnowLight Snow
10:00 PM26.6 °F26.6 °F100 %29.64 in4.0 miNE (40°)5.8 mphSnowLight Snow
10:50 PM28.4 °F26.6 °F93 %29.61 in12.0 miNNE (30°)3.5 mphSnowLight Snow
11:00 PM28.4 °F26.6 °F93 %29.60 in15.0 miNorth (350°)3.5 mphSnowLight Snow
Hourly data recorded from CYYG, located miles away from Charlottetown, Prince Edward Island




STORIES FROM OUR PARTNERS